Regional Weather Roundup
Issued by NWS Sterling, VA

Home | Current Version | Previous Version | Text Only | Print | Product List | Glossary On
Versions: 1 2 3 4 5 6 7 8 9 10 11 12 13 14 15 16 17 18 19 20 21 22 23 24 25 26 27
000
ASUS41 KLWX 270711
RWRLWX

REGIONAL WEATHER ROUNDUP
NATIONAL WEATHER SERVICE BALTIMORE MD/WASHINGTON DC
300 AM EDT THU JUL 27 2017

Note: "FAIR" indicates few or no clouds below 12,000 feet
with no significant weather and/or obstructions to visibility.
 TC=TEMPERATURE CELSIUS

 * =Non NWS site. Station does not report precipitation (e.g. rain,
    snow, etc.), thunder, or fog.

DCZ001-MDZ009-015-VAZ040>042-051-053>054-270800-
WASHINGTON METRO

CITY           SKY/WX    TMP DP  RH WIND       PRES   REMARKS
WASHINGTON NAT PTCLDY    74  70  87 S9        30.06F
DULLES         PTCLDY    71  66  84 S3        30.06F
ANDREWS AFB    CLEAR     70  67  90 S7        30.05F
FT BELVOIR     PTCLDY    72  67  83 SE7       30.05F
QUANTICO       PTCLDY    75  71  87 S16       30.06F
COLLEGE PARK*  MOCLDY    73  67  83 S3        30.06F
LEESBURG*      CLOUDY    72  70  94 CALM      30.07F
MANASSAS*      CLEAR     69  66  90 S3        30.06F
GAITHERSBURG*  MOCLDY    71  68  90 SE6       30.08F

$$

MDZ006>007-011-014-270800-
BALTIMORE METRO

CITY           SKY/WX    TMP DP  RH WIND       PRES   REMARKS
BWI AIRPORT    CLOUDY    72  69  90 CALM      30.07F
MD SCIENCE CTR   N/A     75  68  78 MISG      30.07F
MARTIN STATE   CLOUDY    73  70  88 SE7       30.09F
ANNAPOLIS      CLOUDY    75  72  90 S9        30.06F
FORT MEADE*    MOCLDY    68  64  88 CALM      30.09F

$$

MDZ012-015-019>023-270800-
MARYLAND EASTERN SHORE

CITY           SKY/WX    TMP DP  RH WIND       PRES   REMARKS
OCEAN CITY     CLOUDY    72  67  84 CALM      30.09F
SALISBURY      CLOUDY    67  66  97 CALM      30.09F
BAY BRIDGE AP* CLOUDY    73  68  83 S13G18    30.07F
CAMBRIDGE*     MOCLDY    68  66  94 SE6       30.08F
EASTON*        CLOUDY    71  66  82 S9        30.11F

$$

MDZ017>025-270800-
SOUTHERN MARYLAND

CITY           SKY/WX    TMP DP  RH WIND       PRES   REMARKS
PATUXENT RIVER PTCLDY    72  68  87 S3        30.07F
ST INIGOES     CLOUDY    74  68  81 S6        30.07F
LEONARDTOWN*   CLOUDY    72  64  78 S3        30.09F

$$

MDZ003>005-270800-
NORTH CENTRAL MARYLAND

CITY           SKY/WX    TMP DP  RH WIND       PRES   REMARKS
FREDERICK*     CLOUDY    72  72 100 CALM      30.10S
HAGERSTOWN APT CLOUDY    73  67  81 SE7       30.05F
WESTMINSTER*   CLOUDY    72  68  88 SE5       30.09F

$$

MDZ501>502-270800-
WESTERN MARYLAND

CITY           SKY/WX    TMP DP  RH WIND       PRES   REMARKS
OAKLAND*       CLOUDY    61  61 100 S5        30.10S
CUMBERLAND*    CLOUDY    66  64  94 CALM      30.07F

$$

VAZ025>031-270800-
SHENANDOAH VALLEY

CITY           SKY/WX    TMP DP  RH WIND       PRES   REMARKS
WINCHESTER*    PTCLDY    68  64  88 S5        30.03F
FRONT ROYAL*   PTCLDY    66  64  94 CALM      30.04F
LURAY*         PTCLDY    68  66  94 CALM      30.06F
NEW MARKET*    PTCLDY    67  64  90 SW3       30.05F
STAUNTON*      CLEAR     63  62  94 CALM      30.09F
WAYNESBORO*    PTCLDY    64  64 100 CALM      30.09F

$$

WVZ021-048>050-054>055-270800-
EASTERN WEST VIRGINIA PANHANDLE

CITY           SKY/WX    TMP DP  RH WIND       PRES   REMARKS
MARTINSBURG    CLEAR     68  64  87 N3        30.03F
PETERSBURG*    CLOUDY    66  65  96 CALM      30.05F

$$

VAZ036>039-050-270800-
CENTRAL FOOTHILLS

CITY           SKY/WX    TMP DP  RH WIND       PRES   REMARKS
CHARLOTTESVILL PTCLDY    69  67  93 CALM      30.06F
CULPEPER*      CLEAR     68  66  95 CALM      30.06F
ORANGE*        CLEAR     68  64  88 CALM      30.06F
GORDONSVILLE*  CLEAR     66  66 100 CALM      30.06F
WARRENTON*     CLEAR     71  64  79 S5        30.05F

$$

VAZ055>057-270800-
NORTH AND CENTRAL PIEDMONT

CITY           SKY/WX    TMP DP  RH WIND       PRES   REMARKS
FREDERICKSBRG* MOCLDY    71  67  88 S6        30.05F
STAFFORD*      PTCLDY    69  68  98 SE3       30.10F

$$

NCZ024-NYZ072-PAZ021-071-VAZ022-071-270800-
OTHER REGIONAL OBSERVATIONS

CITY           SKY/WX    TMP DP  RH WIND       PRES   REMARKS
NEW YORK CITY  CLOUDY    66  60  81 VRB6      30.11F
PHILADELPHIA   PTCLDY    67  61  81 SE5       30.10F
PITTSBURGH     CLOUDY    65  63  93 CALM      30.02F
ROANOKE        PTCLDY    70  67  90 CALM      30.10F
RICHMOND       PTCLDY    70  67  90 S6        30.08F
RALEIGH        PTCLDY    77  68  73 SW7       30.09F

$$

ANZ530>537-270800-
MARINE OBSERVATIONS

STATION/POSITION TIME  TEMP    WIND        PRES
                       AIR SEA DIR/SP/G
                 (UTC) (F)     (DEG/KT/KT) (MB)
THOMAS PT LIGHT  0700   74 81  160/ 17/ 20   N/A
BALT KEY BRIDGE  0642          150/  9/ 12 1018.1F
COVE POINT       0642          200/ 12/ 13 1019.0F
LEWISETTA        0642          200/  8/ 10 1018.5F
SOLOMONS ISLAND  0642          170/  7/  8   N/A
PINEY POINT      0636          190/ 12/ 14   N/A

$$





USA.gov is the U.S. government's official web portal to all federal, state and local government web resources and services.